Location: Mactaquac Provincial Park
(45.9573°N, 66.8897°W)
Time: 17:47:34
(UTC-03:00)

CENTAUR R/B - Visible Passes

Search period start: 26 June 2016 00:00
Search period end: 06 July 2016 00:00
Orbit: 854 x 1334 km, 63.5° (Epoch: 09 June)

Date Brightness Start Highest point End Pass type
(mag) Time Alt. Az. Time Alt. Az. Time Alt. Az.
26 Jun 5.3 00:40:18 10° NW 00:45:35 21° N 00:51:14 10° ENE visible
26 Jun 4.4 02:31:27 10° NNW 02:38:30 40° NE 02:46:05 10° ESE visible
26 Jun 3.1 04:22:05 10° NW 04:29:50 71° WSW 04:38:04 10° SSE visible
26 Jun 5.0 21:57:34 10° W 22:03:10 28° NNW 22:09:20 10° NNE visible
26 Jun 5.4 23:51:29 10° NW 23:56:28 20° N 00:01:49 10° NE visible
27 Jun 4.8 01:43:13 10° NNW 01:49:44 31° NNE 01:56:43 10° E visible
27 Jun 3.2 03:33:49 10° NW 03:41:34 82° NE 03:49:53 10° SE visible
27 Jun 5.4 23:02:22 10° NW 23:07:20 20° N 23:12:41 10° NE visible
28 Jun 5.0 00:54:54 10° NNW 01:00:49 25° NNE 01:07:10 10° ENE visible
28 Jun 3.7 02:45:37 10° NW 02:53:10 59° NE 03:01:17 10° ESE visible
28 Jun 3.4 04:36:35 10° NW 04:43:52 43° WSW 04:51:32 10° S visible
28 Jun 5.3 22:13:06 10° WNW 22:18:16 22° NNW 22:23:54 10° NE visible
29 Jun 5.2 00:06:23 10° NW 00:11:47 21° NNE 00:17:33 10° ENE visible
29 Jun 4.2 01:57:26 10° NNW 02:04:36 43° NE 02:12:18 10° ESE visible
29 Jun 3.1 03:48:06 10° NW 03:55:49 65° WSW 04:03:58 10° SSE visible
29 Jun 5.3 23:17:38 10° NW 23:22:40 20° N 23:28:04 10° NE visible
30 Jun 4.6 01:09:13 10° NNW 01:15:52 33° NNE 01:23:00 10° E visible
30 Jun 3.1 02:59:48 10° NW 03:07:35 88° NE 03:15:54 10° SE visible
30 Jun 4.0 04:51:32 10° WNW 04:57:40 25° WSW 05:04:01 10° SSW visible
30 Jun 5.3 22:28:36 10° NW 22:33:33 20° N 22:38:53 10° NE visible
01 Jul 4.9 00:20:55 10° NNW 00:26:59 26° NNE 00:33:29 10° ENE visible
01 Jul 3.5 02:11:36 10° NW 02:19:14 63° NE 02:27:24 10° SE visible
01 Jul 3.5 04:02:39 10° NW 04:09:48 39° WSW 04:17:17 10° S visible
01 Jul 5.1 23:32:28 10° NW 23:37:59 22° NNE 23:43:52 10° ENE visible
02 Jul 4.0 01:23:25 10° NNW 01:30:41 46° NE 01:38:30 10° ESE visible
02 Jul 3.1 03:14:08 10° NW 03:21:46 59° WSW 03:29:51 10° SSE visible
02 Jul 5.2 22:43:46 10° NW 22:48:53 20° N 22:54:20 10° NE visible
03 Jul 4.4 00:35:13 10° NNW 00:41:59 35° NNE 00:49:16 10° E visible
03 Jul 3.0 02:25:48 10° NW 02:33:36 86° SW 02:41:54 10° SSE visible
03 Jul 4.2 04:17:46 10° WNW 04:23:33 22° WSW 04:29:05 11° SSW visible
03 Jul 5.2 21:54:48 10° NW 21:59:45 20° N 22:05:04 10° NE visible
03 Jul 4.7 23:46:57 10° NNW 23:53:09 27° NNE 23:59:47 10° E visible
04 Jul 3.3 01:37:34 10° NW 01:45:15 69° NE 01:53:30 10° SE visible
04 Jul 3.7 03:28:45 10° NW 03:35:43 35° WSW 03:40:40 19° SSW visible
04 Jul 4.9 22:58:32 10° NW 23:04:10 23° NNE 23:10:11 10° ENE visible
05 Jul 3.8 00:49:23 10° NNW 00:56:46 49° NE 01:04:41 10° ESE visible
05 Jul 3.2 02:40:11 10° NW 02:47:44 54° WSW 02:52:39 25° S visible
05 Jul 4.7 04:35:00 10° W 04:37:02 11° W 04:39:04 10° WSW visible
05 Jul 5.1 22:09:54 10° NW 22:15:05 20° N 22:20:37 10° NE visible
